Location: Church Cobham
(51.3167°N, 0.4167°W)
Time: 13:23:23
(UTC+00:00)

Daily predictions for brighter satellites

Satellite Brightness Start Highest point End
(mag) Time Altitude Azimuth Time Altitude Azimuth Time Altitude Azimuth
Unknown 3.7 17:20:20 10° W 17:24:28 72° N 17:28:37 10° ENE
Cosmos 1777 Rocket 4.0 17:19:55 10° NNW 17:25:10 72° ENE 17:30:22 10° SSE
Unknown 3.7 17:21:59 10° W 17:26:09 72° N 17:30:18 10° ENE
Unknown 3.7 17:23:40 10° W 17:27:49 72° N 17:31:58 10° ENE
Cosmos 1271 Rocket 3.7 17:24:54 10° NNW 17:28:50 56° W 17:32:46 10° S
Okean-O 2.6 17:24:27 10° SSE 17:28:51 74° ENE 17:33:19 10° NNW
Unknown 3.7 17:25:21 10° W 17:29:31 71° N 17:33:39 10° ENE
Lacrosse 5 1.9 17:24:29 10° WNW 17:29:35 90° ENE 17:34:40 10° ESE
Unknown 3.6 17:28:12 10° WNW 17:31:34 60° SSW 17:34:56 10° SE
Cosmos 1606 Rocket 3.6 17:27:17 10° S 17:31:40 87° W 17:36:02 10° N
Unknown 3.8 17:28:41 10° W 17:32:50 71° N 17:36:59 10° E
Cosmos 1821 Rocket 4.3 17:26:43 10° NNW 17:32:50 75° W 17:38:59 10° S
Cosmos 1605 Rocket 4.1 17:27:37 10° N 17:33:42 53° ENE 17:39:39 10° SSE
Unknown 3.8 17:30:24 10° W 17:34:33 70° N 17:38:42 10° E
Cosmos 1934 Rocket 4.0 17:28:21 10° N 17:34:44 78° E 17:41:07 10° SSE
Cosmos 1328 3.7 17:30:50 10° N 17:34:49 72° ENE 17:38:45 10° SSE
Cosmos 2058 4.4 17:32:29 10° NNE 17:35:28 18° ENE 17:38:26 10° ESE
Unknown 3.6 17:31:46 10° W 17:35:39 68° N 17:39:33 10° E
Unknown 3.8 17:31:59 10° W 17:36:08 70° N 17:40:17 10° E
Unknown 3.8 17:33:36 10° W 17:37:45 70° N 17:41:50 10° E
Cosmos 1242 Rocket 2.8 17:34:41 10° NNW 17:38:24 77° W 17:42:03 10° S
Cosmos 1300 4.3 17:36:28 10° ESE 17:38:35 15° E 17:40:44 10° NE
CORIOLIS 4.4 17:33:56 10° S 17:39:17 77° WSW 17:44:42 10° NNW
Unknown 3.8 17:35:20 10° W 17:39:29 70° N 17:43:30 11° E
Unknown 3.8 17:36:49 10° W 17:40:57 70° N 17:44:55 11° E
Unknown 3.8 17:40:07 10° W 17:44:16 69° N 17:48:05 12° E
FALCON 9 DEB 3.7 17:40:54 10° WNW 17:44:20 57° SSW 17:47:45 10° SE
Unknown 3.7 17:41:47 10° W 17:45:56 69° N 17:49:41 12° E
H-2A R/B 3.5 17:42:51 10° S 17:46:43 59° W 17:50:38 10° NNW
ATLAS 3B R/B 4.1 17:43:35 10° SE 17:47:09 15° ESE 17:50:13 11° ENE
Unknown 3.8 17:43:41 10° W 17:47:49 69° N 17:51:29 13° E
CZ-2D R/B 4.3 17:45:20 10° ESE 17:48:31 25° ENE 17:51:44 10° N
Cosmos 2082 Rocket 2.2 17:42:54 10° NNW 17:48:37 64° NE 17:54:16 10° SE
Cosmos 2084 4.5 17:44:18 10° WSW 17:48:38 45° NW 17:52:54 10° NE
Unknown 3.8 17:45:10 10° W 17:49:18 69° N 17:52:55 13° E
CSL-04 Debris 4.3 17:44:20 10° SE 17:49:37 53° ENE 17:54:58 10° N
Nadezhda 3 Rocket 4.5 17:44:06 10° SSW 17:50:23 70° WNW 17:56:47 10° N
Cosmos 1727 Rocket 4.5 17:44:55 10° SSE 17:50:28 37° E 17:56:03 10° NNE
Unknown 3.7 17:46:48 10° W 17:50:57 69° N 17:54:29 14° E
NOAA 12 4.3 17:46:28 10° SSE 17:51:46 82° WSW 17:57:08 10° NNW
Cosmos 1812 Rocket 4.4 17:49:02 10° SSE 17:52:51 29° E 17:56:41 10° NNE
Unknown 3.7 17:49:22 10° W 17:53:25 68° N 17:56:45 15° E
CENTAUR R/B 3.9 17:50:16 10° SE 17:53:57 17° ESE 17:56:59 12° ENE
Cosmos 1939 Rocket 3.9 17:50:37 10° ESE 17:54:01 27° ENE 17:57:29 10° N
Unknown 3.7 17:50:10 10° W 17:54:18 68° N 17:57:42 15° E
Unknown 3.7 17:51:46 10° W 17:55:55 68° N 17:59:15 15° E
Cosmos 1844 Rocket 3.7 17:51:50 10° SW 17:57:18 48° NW 18:02:46 10° NNE
Cosmos 2228 3.8 17:53:08 10° SSW 17:57:25 57° WNW 18:01:42 10° N
Unknown 3.7 17:53:28 10° W 17:57:37 68° N 18:00:52 16° E
Falcon 9 debris 4.1 17:54:30 10° WNW 17:57:48 44° SSW 18:01:07 10° SE
BREEZE-M DEB (TANK) 4.1 17:54:30 10° SSW 17:58:06 21° SSE 17:59:42 14° ESE
Unknown 3.7 17:55:09 10° W 17:59:17 68° N 18:02:29 16° E
SKYMED 2 3.7 17:57:12 10° NNE 18:01:29 52° E 18:05:42 10° S
Unknown 3.9 17:58:13 10° WNW 18:01:40 52° SSW 18:05:02 10° SE
Unknown 3.7 17:58:31 10° W 18:02:39 68° N 18:05:42 18° E
Unknown 3.7 17:59:00 10° W 18:03:06 68° N 18:06:04 18° E
Unknown 3.7 17:59:30 10° W 18:03:38 68° N 18:06:38 18° E
Envisat 3.1 17:58:37 10° SSE 18:03:43 82° WSW 18:08:50 10° NNW
YAOGAN 1 2.6 17:59:41 10° SSE 18:03:56 60° ENE 18:08:13 10° N
Cosmos 921 Rocket 3.9 17:59:37 10° SW 18:04:00 52° WNW 18:08:21 10° NNE
Unknown 3.7 18:00:16 10° W 18:04:25 68° N 18:07:23 18° E
Unknown 3.7 18:02:03 10° W 18:06:12 68° N 18:09:06 19° E
Cosmos 1703 4.0 18:03:13 10° NNW 18:07:06 58° W 18:10:56 10° S
Cosmos 1356 3.9 18:05:05 10° SSW 18:08:29 62° WNW 18:11:56 10° N
Unknown 3.7 18:05:11 10° W 18:09:20 68° N 18:12:06 20° E
Cosmos 1898 Rocket 3.9 18:04:53 10° NNW 18:09:54 42° NE 18:14:40 11° SE
Unknown 3.3 18:06:40 10° WNW 18:10:25 84° SSW 18:12:58 19° ESE
Cosmos 292 Rocket 4.0 18:05:53 10° SSW 18:10:37 71° WNW 18:15:24 10° NNE
COBE Rocket 4.0 18:05:56 10° NNE 18:11:08 86° ESE 18:16:12 10° SSW
Unknown 3.7 18:08:31 10° W 18:12:39 68° N 18:15:17 21° E
BREEZE M DEB (TANK) 3.5 18:10:42 10° W 18:12:50 28° SSW 18:16:55 10° SE
H-2A R/B 3.5 18:11:50 17° E 18:13:34 20° NE 18:17:24 10° N
Unknown 3.7 18:10:09 10° W 18:14:17 68° N 18:16:51 22° E
Cosmos 1726 2.8 18:11:07 10° SSW 18:14:42 56° WNW 18:18:19 10° N
ATLAS 5 CENTAUR R/B 3.3 18:11:14 10° W 18:15:19 31° NNW 18:19:56 10° NE
Unknown 3.7 18:11:50 10° W 18:15:58 69° N 18:18:28 23° E
Unknown 3.7 18:13:27 10° W 18:17:36 69° N 18:20:02 24° E
Cosmos 2100 Rocket 4.1 18:13:39 10° N 18:19:41 50° ENE 18:25:37 10° SSE
USA 116 3.5 18:19:02 10° NNE 18:22:11 47° ESE 18:25:34 10° S
USA 238 DEB 3.8 18:16:13 10° SSW 18:22:44 57° SE 18:29:25 10° NE
USA 238 3.8 18:16:20 10° SSW 18:22:51 57° SE 18:29:27 11° NE
Unknown 3.7 18:20:09 10° W 18:24:18 69° N 18:26:27 27° E
Cosmos 1908 3.6 18:21:19 10° SSW 18:25:11 67° W 18:29:05 10° N
Unknown 3.7 18:21:51 10° W 18:25:59 70° N 18:28:04 28° E
Abrixas rocket 2.7 18:23:13 10° WSW 18:26:10 43° S 18:27:03 32° SE
CZ-4 R/B 1.9 18:22:41 10° S 18:26:53 66° WSW 18:31:07 10° NNW
Unknown 3.7 18:23:29 10° W 18:27:38 70° N 18:29:39 29° E
Unknown 3.7 18:25:08 10° W 18:29:16 70° N 18:31:13 30° E
Unknown 3.7 18:26:47 10° W 18:30:56 70° N 18:32:48 31° E
ATLAS CENTAUR R/B 3.1 18:28:08 10° NNW 18:31:43 21° NNE 18:33:06 19° NE
Cosmos 2278 Rocket 2.2 18:26:04 10° SSW 18:31:45 85° WNW 18:37:29 10° NNE
Unknown 3.6 18:30:08 10° WNW 18:34:17 71° N 18:36:01 33° E
Cosmos 1153 Rocket 4.5 18:29:00 10° N 18:35:11 88° W 18:41:20 10° S
Cosmos 2016 Rocket 4.3 18:29:34 10° N 18:35:34 44° ENE 18:41:16 12° SE
Starlink (trailer) 3.6 18:31:46 10° WNW 18:35:56 71° N 18:37:35 35° E
Cosmos 2297 4.1 18:31:41 10° S 18:36:57 40° ESE 18:41:31 14° NE
Unknown 3.6 18:33:29 10° WNW 18:37:38 72° N 18:39:13 36° E
Unknown 3.6 18:35:08 10° WNW 18:39:17 72° N 18:40:49 37° E
SJ 16-02 1.7 18:35:31 10° NNW 18:39:45 44° ENE 18:41:02 34° ESE
CSL-04 Rocket 4.0 18:34:37 10° S 18:40:07 69° WSW 18:45:35 10° NNW
SJ-6B 4.3 18:42:08 20° NE 18:42:08 20° NE 18:43:54 10° N
Cosmos 2084 Rocket 4.2 18:36:36 10° NW 18:40:55 52° SW 18:44:44 13° SSE
YAOGAN 6 3.9 18:38:31 10° S 18:41:59 42° W 18:45:27 10° NNW
Unknown 3.6 18:40:10 10° WNW 18:44:19 74° N 18:45:38 42° E
NOSS 3-2 (A) 3.4 18:39:23 10° SSW 18:45:09 63° SE 18:50:14 17° NE
Unknown 3.6 18:41:47 10° WNW 18:45:56 74° N 18:47:11 43° E
Ariane Rocket 2.9 18:41:16 10° SSE 18:46:21 75° ENE 18:51:28 10° NNW
ARGOS 3.9 18:46:32 30° ENE 18:47:17 31° ENE 18:52:01 10° N
Unknown 3.6 18:43:30 10° WNW 18:47:39 75° N 18:48:50 45° E
Unknown 3.5 18:45:01 10° WNW 18:48:50 73° SSW 18:49:50 46° SE
Unknown 3.6 18:45:04 10° WNW 18:49:16 75° N 18:50:24 46° E
COSMO-SKYMED 1 3.2 18:45:18 10° N 18:49:35 56° WNW 18:53:49 10° SSW
Cosmos 468 Rocket 4.3 18:45:23 10° S 18:50:16 40° ESE 18:52:10 30° ENE
Unknown 3.6 18:46:47 10° WNW 18:50:56 76° N 18:51:59 48° E
HJ-1C 3.3 18:50:51 64° E 18:50:59 64° ENE 18:54:19 10° N
Unknown 3.6 18:48:33 10° WNW 18:52:43 77° NNE 18:53:41 51° E
Cosmos 1892 3.1 18:49:02 10° N 18:52:13 43° NE 18:52:13 43° NE
Unknown 3.5 18:51:52 10° WNW 18:56:02 78° N 18:56:52 55° E
Unknown 3.6 18:51:53 10° WNW 18:56:02 78° N 18:56:52 55° E
Unknown 3.5 18:53:26 10° WNW 18:57:35 78° N 18:58:22 57° E
Cosmos 990 Rocket 3.9 18:53:37 10° NNW 18:58:52 86° ENE 19:02:11 23° SSE
Cosmos 1833 Rocket 4.4 18:54:15 10° NW 18:59:12 32° WSW 19:04:06 10° SSW
Cosmos 1937 Rocket 3.3 18:54:57 10° NNW 19:00:06 71° ENE 19:02:14 35° SE
NOAA 11 4.3 18:54:43 10° S 19:00:09 76° WSW 19:05:37 10° NNW
ADEOS Rocket 3.9 18:53:51 10° NNE 19:00:46 36° E 19:03:33 27° SE
Unknown 3.5 18:56:41 10° WNW 19:00:51 79° NNE 19:01:29 61° E
Cosmos 858 Rocket 4.4 18:56:36 10° NNW 19:01:50 76° ENE 19:04:10 33° SE
Unknown 3.5 19:00:06 10° WNW 19:04:16 81° NNE 19:04:46 67° E
Unknown 3.4 19:01:46 10° WNW 19:05:55 81° NNE 19:06:22 69° E
Cosmos 1766 Rocket 3.4 19:01:45 10° N 19:06:04 63° ENE 19:06:20 61° E
Cosmos 1459 Rocket 4.0 19:00:10 10° N 19:06:26 87° W 19:12:45 10° S
Unknown 3.4 19:03:26 10° WNW 19:07:36 82° NNE 19:07:58 72° E
Unknown 3.4 19:05:07 10° WNW 19:09:17 83° NNE 19:09:35 75° ENE
NOSS 3-2 (C) 3.4 19:05:50 10° SSW 19:11:36 63° SE 19:14:29 33° ENE
Lacrosse 5 3.8 19:07:57 10° WNW 19:12:05 26° SW 19:16:09 10° S
Unknown 3.4 19:08:27 10° WNW 19:12:36 85° N 19:12:47 81° ENE
Cosmos 2058 3.5 19:08:37 10° NNW 19:12:46 56° W 19:16:53 10° S
CZ-2C R/B 3.9 19:13:11 36° ENE 19:13:11 36° ENE 19:18:09 10° N
Cosmos 1300 3.3 19:10:03 10° SSW 19:13:48 56° WNW 19:17:35 10° N
Cosmos 1238 Rocket 4.5 19:07:50 10° N 19:14:00 39° ENE 19:14:03 39° ENE
Cosmos 2061 Rocket 3.9 19:08:02 10° N 19:14:19 82° ENE 19:19:54 13° SSE
Unknown 3.4 19:10:10 10° WNW 19:14:20 86° NNE 19:14:26 84° ENE
Unknown 3.6 19:10:29 10° WNW 19:14:20 62° SSW 19:14:22 62° SSW
Unknown 3.5 19:11:44 10° WNW 19:15:54 87° N 19:15:56 86° NE
Meteor 2-3 Rocket 4.4 19:11:00 10° N 19:15:45 36° NE 19:15:45 36° NE
Cosmos 1408 Rocket 4.2 19:12:22 10° N 19:15:24 39° NNE 19:15:24 39° NNE
Unknown 3.5 19:13:21 10° WNW 19:17:29 86° N 19:17:29 86° N
Unknown 3.5 19:15:04 10° WNW 19:19:09 85° NW 19:19:09 85° NW
Okean 3 Rocket 3.7 19:15:13 10° NNW 19:19:45 77° W 19:21:39 34° S
Unknown 3.6 19:16:34 10° WNW 19:20:34 82° NW 19:20:34 82° NW
Cosmos 372 Rocket 4.3 19:17:24 10° NNW 19:21:58 46° NE 19:21:58 46° NE
SL-27 R/B 4.0 19:19:22 10° NNW 19:21:06 28° NNW 19:21:06 28° NNW
MOS 1 4.2 19:19:17 21° SSE 19:23:09 84° WSW 19:28:51 10° NNW
Unknown 3.7 19:19:52 10° WNW 19:23:44 77° WNW 19:23:44 77° WNW
Unknown 3.7 19:21:32 10° WNW 19:25:19 74° WNW 19:25:19 74° WNW
Cosmos 1763 Rocket 3.8 19:21:16 10° S 19:25:17 48° SSE 19:25:17 48° SSE
Cosmos 2298 Rocket 4.0 19:22:02 10° NNW 19:27:15 60° ENE 19:27:15 60° ENE
Resurs 01 Rocket 3.5 19:29:47 19° NNE 19:29:47 19° NNE 19:31:19 10° N
Unknown 3.8 19:23:24 10° WNW 19:27:08 71° W 19:27:08 71° W
SJ-11-01 4.2 19:27:11 61° S 19:28:01 85° WSW 19:32:43 10° NNW
Cosmos 2227 Rocket 4.3 19:25:32 10° N 19:28:08 13° NNE 19:28:51 13° NNE
Cosmos 1939 Rocket 4.4 19:25:06 10° SSW 19:28:50 36° W 19:32:38 10° NNW
Unknown 3.8 19:24:54 10° WNW 19:28:34 68° WNW 19:28:34 68° WNW
Cosmos 2151 3.1 19:25:18 10° NNW 19:29:38 75° W 19:29:51 72° SW
Unknown 3.9 19:26:32 10° WNW 19:30:08 66° WNW 19:30:08 66° WNW
Cosmos 2082 Rocket 4.2 19:27:38 10° NW 19:32:18 27° WSW 19:36:56 10° SSW
Unknown 4.1 19:28:40 10° WNW 19:32:02 57° W 19:32:02 57° W
Cosmos 2297 Rocket 4.2 19:30:05 10° N 19:32:55 14° NNE 19:33:19 14° NNE
Unknown 4.0 19:29:53 10° WNW 19:33:21 61° W 19:33:21 61° W
Unknown 4.1 19:31:30 10° WNW 19:34:54 59° W 19:34:54 59° W
ATLAS 3B R/B 2.5 19:30:00 10° SSW 19:36:37 65° SE 19:37:31 59° E
SPOT 3 Rocket 3.4 19:36:38 79° ESE 19:36:52 82° ENE 19:42:07 10° NNW
Unknown 4.2 19:33:11 10° WNW 19:36:31 56° W 19:36:31 56° W
Unknown 4.3 19:34:52 10° WNW 19:38:08 54° W 19:38:08 54° W
Cosmos 1864 Rocket 4.4 19:35:47 10° N 19:41:58 84° W 19:44:32 38° S
Unknown 4.4 19:38:13 10° WNW 19:41:21 50° W 19:41:21 50° W
Unknown 4.5 19:38:30 10° WNW 19:41:33 47° W 19:41:33 47° W
CENTAUR R/B 2.4 19:37:09 10° SSW 19:43:12 73° SE 19:44:14 62° ENE
Unknown 4.5 19:39:11 10° WNW 19:42:17 48° W 19:42:17 48° W
Cosmos 44 3.5 19:42:34 10° SW 19:46:50 64° WSW 19:46:50 64° WSW
H-2A R/B 2.1 19:52:28 84° NW 19:52:28 84° NW 19:57:49 10° NNW
Cosmos 2123 Rocket 3.9 19:46:03 10° S 19:52:21 89° E 19:58:39 10° N
Cosmos 2233 Rocket 3.8 19:50:58 10° N 19:57:19 83° E 19:57:26 83° ESE
Cosmos 1725 Rocket 4.3 19:53:23 10° NNW 19:59:38 66° W 20:02:16 36° SSW
ATLAS 5 CENTAUR R/B 3.8 19:57:36 10° NW 20:01:30 22° N 20:01:57 22° N
ATLAS CENTAUR R/B 3.3 20:06:59 10° NW 20:09:18 28° NNW 20:09:18 28° NNW
USA 238 DEB 4.4 20:07:17 10° WSW 20:13:52 51° NNW 20:16:51 32° NNE
USA 238 4.3 20:07:23 10° WSW 20:13:58 51° NNW 20:16:55 32° NNE
Cosmos 2278 Rocket 4.3 20:12:11 10° W 20:16:42 23° NW 20:21:13 10° NNE
SJ 16-02 3.3 20:14:32 10° NW 20:18:03 25° W 20:18:03 25° W
ARGOS 4.0 20:28:03 48° WNW 20:28:03 48° WNW 20:32:40 10° NNW
NOSS 3-2 (A) 4.4 20:30:30 10° W 20:36:21 45° NNW 20:37:38 40° N
ADEOS Rocket 3.8 20:39:05 10° N 20:46:41 63° WNW 20:50:26 30° SW
Cosmos 2227 Rocket 4.4 21:08:54 10° NNW 21:10:39 19° N 21:10:39 19° N
Cosmos 2297 Rocket 4.4 21:13:27 10° NNW 21:15:06 18° N 21:15:06 18° N
ATLAS 3B R/B 4.1 21:21:16 10° WSW 21:24:50 30° W 21:24:50 30° W
CENTAUR R/B 4.2 21:28:16 10° W 21:31:29 29° WNW 21:31:29 29° WNW
